TimeCST,TemperatureF,Dew PointF,Humidity,Sea Level PressureIn,VisibilityMPH,Wind Direction,Wind SpeedMPH,Gust SpeedMPH,PrecipitationIn,Events,Conditions,WindDirDegrees,DateUTC
12:53 AM,43.0,32.0,65,30.10,10.0,SSE,4.6,-,N/A,,Clear,160,2013-11-08 06:53:00
1:53 AM,42.1,30.9,65,30.04,10.0,SSE,13.8,-,N/A,,Clear,160,2013-11-08 07:53:00
2:53 AM,39.9,30.9,70,30.01,10.0,North,4.6,-,N/A,,Clear,10,2013-11-08 08:53:00
3:53 AM,39.0,30.9,73,29.97,10.0,North,-9999.0,-,N/A,,Clear,0,2013-11-08 09:53:00
4:53 AM,37.9,30.9,76,29.94,10.0,SSE,3.5,-,N/A,,Clear,160,2013-11-08 10:53:00
5:53 AM,35.1,30.0,82,29.91,10.0,North,-9999.0,-,N/A,,Clear,0,2013-11-08 11:53:00
6:53 AM,33.1,30.0,89,29.88,10.0,SSE,4.6,-,N/A,,Clear,160,2013-11-08 12:53:00
7:53 AM,32.0,28.9,88,29.88,10.0,South,5.8,-,N/A,,Clear,190,2013-11-08 13:53:00
8:53 AM,37.0,30.0,76,29.85,10.0,WSW,8.1,-,N/A,,Clear,240,2013-11-08 14:53:00
9:53 AM,44.1,32.0,63,29.83,10.0,NW,8.1,-,N/A,,Clear,320,2013-11-08 15:53:00
10:53 AM,51.1,34.0,52,29.83,10.0,WNW,6.9,-,N/A,,Clear,300,2013-11-08 16:53:00
11:53 AM,57.0,36.0,45,29.79,10.0,SW,4.6,-,N/A,,Clear,230,2013-11-08 17:53:00
12:53 PM,63.0,34.0,34,29.75,10.0,WSW,5.8,-,N/A,,Clear,240,2013-11-08 18:53:00
1:53 PM,64.0,35.1,34,29.75,10.0,WSW,8.1,-,N/A,,Clear,250,2013-11-08 19:53:00
2:53 PM,69.1,35.1,29,29.75,10.0,West,6.9,-,N/A,,Clear,260,2013-11-08 20:53:00
3:53 PM,70.0,30.9,24,29.76,10.0,NW,15.0,23.0,N/A,,Clear,320,2013-11-08 21:53:00
4:53 PM,64.9,32.0,29,29.77,10.0,NW,9.2,-,N/A,,Clear,320,2013-11-08 22:53:00
5:53 PM,59.0,33.1,38,29.83,10.0,ENE,3.5,-,N/A,,Clear,70,2013-11-08 23:53:00
6:53 PM,53.1,34.0,48,29.91,10.0,North,3.5,-,N/A,,Clear,10,2013-11-09 00:53:00
7:53 PM,48.9,34.0,56,29.94,10.0,Calm,Calm,-,N/A,,Clear,0,2013-11-09 01:53:00
8:53 PM,48.9,34.0,56,29.97,10.0,Calm,Calm,-,N/A,,Clear,0,2013-11-09 02:53:00
9:53 PM,42.1,34.0,73,29.99,10.0,WNW,5.8,-,N/A,,Clear,300,2013-11-09 03:53:00
10:53 PM,39.0,32.0,76,30.00,10.0,West,4.6,-,N/A,,Clear,270,2013-11-09 04:53:00
11:53 PM,35.1,30.9,85,30.01,10.0,WSW,3.5,-,N/A,,Clear,250,2013-11-09 05:53:00